Weather History for Antigo, WI

Change the Weather History Date:

Monday, August 19, 2013

  Actual Average Record
Temperature  
Mean Temperature 65 °F -  
Max Temperature 78 °F 75 °F 93 °F (1955)
Min Temperature 52 °F 52 °F 34 °F (1967)
Growing Degree Days 15 (Base 50)    
Moisture  
Dew Point 58 °F    
Average Humidity 76    
Maximum Humidity 99    
Minimum Humidity 51    
Precipitation  
Precipitation 0.03 in - - ()
Sea Level Pressure  
Sea Level Pressure 30.05 in    
Wind  
Wind Speed 6 mph (SW)    
Max Wind Speed 18 mph    
Max Gust Speed 25 mph    
Visibility 10 miles    
Events      
Averages and records for this station are not official NWS values.
T = Trace of Precipitation, MM = Missing Value Source: NWS Daily Summary

Daily Weather History Graph

Daily Weather History Graph

Search for Another Location

Airport:

Trip Planner

Search our weather history database for the weather conditions in past years. The results will help you decide how hot, cold, wet, or windy it might be!

Date:

Astronomy

Aug. 19, 2013 Rise Set
Actual Time 6:02 AM CDT 7:56 PM CDT
Civil Twilight 5:31 AM CDT 8:27 PM CDT
Nautical Twilight 4:52 AM CDT 9:06 PM CDT
Astronomical Twilight 4:10 AM CDT 9:48 PM CDT
Moon 6:47 PM CDT (8/19) 4:20 AM CDT (8/19)
Length of Visible Light 14h 56m
Length of Day
13h 53m
Waxing Gibbous, 97% of the Moon is Illuminated
Aug 19
Waxing Gibbous
Aug 20
Full
Aug 28
Last Quarter
Sep 5
New
Sep 12
First Quarter

Hourly Weather History & Observations

Time (CDT) Temp. Dew Point Humidity Pressure Visibility Wind Dir Wind Speed Gust Speed Precip Events Conditions
12:15 AM 57.0 °F 53.1 °F 87% 30.09 in 10.0 mi SSW 3.5 mph - N/A   Clear
12:35 AM 56.7 °F 53.6 °F 89% 30.10 in 10.0 mi WSW 3.5 mph - N/A   Clear
12:55 AM 57.2 °F 53.8 °F 88% 30.10 in 10.0 mi WSW 3.5 mph - N/A   Clear
1:15 AM 56.8 °F 53.2 °F 88% 30.09 in 10.0 mi Calm Calm - N/A   Clear
1:35 AM 54.3 °F 51.8 °F 91% 30.09 in 10.0 mi Calm Calm - N/A   Clear
1:55 AM 53.6 °F 51.6 °F 93% 30.09 in 10.0 mi Calm Calm - N/A   Clear
2:15 AM 54.5 °F 52.0 °F 91% 30.08 in 10.0 mi South 3.5 mph - N/A   Clear
2:35 AM 55.2 °F 53.1 °F 92% 30.08 in 10.0 mi SSW 3.5 mph - N/A   Clear
2:55 AM 53.6 °F 51.4 °F 92% 30.08 in 10.0 mi SSW 3.5 mph - N/A   Clear
3:15 AM 54.0 °F 53.1 °F 97% 30.08 in 10.0 mi SW 3.5 mph - N/A   Clear
3:35 AM 52.7 °F 51.6 °F 96% 30.08 in 10.0 mi Calm Calm - N/A   Clear
3:55 AM 52.9 °F 51.8 °F 96% 30.08 in 7.0 mi Calm Calm - N/A   Clear
4:15 AM 53.8 °F 52.2 °F 94% 30.08 in 10.0 mi SW 3.5 mph - N/A   Clear
4:35 AM 53.8 °F 53.6 °F 99% 30.08 in 7.0 mi SW 3.5 mph - N/A   Clear
4:55 AM 54.3 °F 53.8 °F 98% 30.07 in 7.0 mi Calm Calm - N/A   Clear
5:15 AM 52.3 °F 51.4 °F 97% 30.08 in 7.0 mi SW 3.5 mph - N/A   Scattered Clouds
5:35 AM 53.8 °F 52.7 °F 96% 30.07 in 10.0 mi WSW 3.5 mph - N/A   Clear
5:55 AM 53.6 °F 52.5 °F 96% 30.08 in 10.0 mi SW 4.6 mph - N/A   Clear
6:15 AM 53.6 °F 52.3 °F 95% 30.07 in 10.0 mi SW 5.8 mph - N/A   Clear
6:35 AM 55.4 °F 53.8 °F 94% 30.07 in 10.0 mi SW 5.8 mph - N/A   Clear
6:55 AM 56.5 °F 54.5 °F 93% 30.07 in 10.0 mi SW 4.6 mph - N/A   Clear
7:15 AM 58.8 °F 55.9 °F 90% 30.06 in 10.0 mi SW 6.9 mph - N/A   Clear
7:35 AM 60.8 °F 56.5 °F 86% 30.06 in 10.0 mi SW 10.4 mph - N/A   Clear
7:55 AM 62.1 °F 56.7 °F 82% 30.06 in 10.0 mi WSW 9.2 mph - N/A   Clear
8:15 AM 62.8 °F 56.8 °F 81% 30.06 in 10.0 mi WSW 9.2 mph - N/A   Clear
8:35 AM 64.8 °F 57.6 °F 77% 30.07 in 10.0 mi SW 9.2 mph - N/A   Clear
8:55 AM 65.7 °F 57.4 °F 75% 30.08 in 10.0 mi WSW 9.2 mph - N/A   Clear
9:15 AM 68.0 °F 58.3 °F 71% 30.09 in 10.0 mi West 5.8 mph - N/A   Clear
9:35 AM 69.3 °F 58.5 °F 68% 30.08 in 10.0 mi West 6.9 mph - N/A   Clear
9:55 AM 71.2 °F 59.4 °F 66% 30.08 in 10.0 mi West 4.6 mph - N/A   Clear
10:15 AM 72.1 °F 59.0 °F 63% 30.08 in 10.0 mi WSW 10.4 mph - N/A   Clear
10:35 AM 73.6 °F 59.2 °F 61% 30.07 in 10.0 mi SW 10.4 mph 16.1 mph N/A   Clear
10:55 AM - - N/A% - - North - - N/A   Unknown
11:15 AM 74.8 °F 59.4 °F 58% 30.06 in 10.0 mi WSW 12.7 mph 17.3 mph 0.03 in   Clear
11:35 AM 75.6 °F 59.2 °F 57% 30.05 in 10.0 mi WSW 16.1 mph 21.9 mph 0.03 in   Clear
11:55 AM 76.1 °F 59.5 °F 56% 30.05 in 10.0 mi SW 11.5 mph 20.7 mph 0.03 in   Clear
12:15 PM 76.5 °F 58.1 °F 53% 30.04 in 10.0 mi WSW 18.4 mph 25.3 mph N/A   Clear
12:35 PM 77.0 °F 59.0 °F 54% 30.04 in 10.0 mi WSW 13.8 mph - N/A   Clear
12:55 PM 77.5 °F 59.2 °F 53% 30.03 in 10.0 mi SSW 12.7 mph 20.7 mph N/A   Clear
1:15 PM 77.7 °F 58.6 °F 52% 30.03 in 10.0 mi SSW 15.0 mph 21.9 mph N/A   Clear
1:35 PM 77.4 °F 59.4 °F 54% 30.03 in 10.0 mi SW 13.8 mph - N/A   Clear
1:55 PM 78.1 °F 59.0 °F 52% 30.03 in 10.0 mi SW 11.5 mph 23.0 mph N/A   Scattered Clouds
2:15 PM 78.3 °F 58.8 °F 51% 30.03 in 10.0 mi WSW 15.0 mph 19.6 mph N/A   Clear
2:35 PM 78.3 °F 59.0 °F 51% 30.03 in 10.0 mi SW 13.8 mph 19.6 mph N/A   Scattered Clouds
2:55 PM 77.5 °F 59.4 °F 53% 30.03 in 10.0 mi SW 15.0 mph 20.7 mph N/A   Mostly Cloudy
3:15 PM 77.2 °F 57.6 °F 51% 30.03 in 10.0 mi WSW 15.0 mph 21.9 mph N/A   Overcast
3:35 PM 78.1 °F 59.4 °F 52% 30.02 in 10.0 mi SW 15.0 mph 20.7 mph N/A   Mostly Cloudy
3:55 PM 78.6 °F 60.1 °F 53% 30.02 in 10.0 mi WSW 13.8 mph 21.9 mph N/A   Scattered Clouds
4:15 PM 77.0 °F 59.9 °F 55% 30.02 in 10.0 mi WSW 12.7 mph - N/A   Mostly Cloudy
4:35 PM 78.1 °F 60.6 °F 55% 30.02 in 10.0 mi WSW 13.8 mph - N/A   Mostly Cloudy
4:55 PM 77.4 °F 61.2 °F 57% 30.02 in 10.0 mi West 11.5 mph 18.4 mph N/A   Mostly Cloudy
5:15 PM 77.5 °F 61.2 °F 57% 30.02 in 10.0 mi WSW 11.5 mph 18.4 mph N/A   Mostly Cloudy
5:35 PM 77.4 °F 61.7 °F 58% 30.01 in 10.0 mi SW 12.7 mph 16.1 mph N/A   Scattered Clouds
5:55 PM 77.2 °F 61.9 °F 59% 30.01 in 10.0 mi WSW 10.4 mph - N/A   Scattered Clouds
6:15 PM 76.6 °F 61.7 °F 60% 30.01 in 10.0 mi WSW 9.2 mph 16.1 mph N/A   Scattered Clouds
6:35 PM 75.6 °F 61.9 °F 62% 30.01 in 10.0 mi WSW 9.2 mph - N/A   Clear
6:55 PM 74.8 °F 62.2 °F 65% 30.01 in 10.0 mi WSW 8.1 mph - N/A   Clear
7:15 PM 73.8 °F 62.6 °F 68% 30.01 in 10.0 mi WSW 5.8 mph - N/A   Clear
7:35 PM 72.0 °F 62.6 °F 72% 30.00 in 10.0 mi SW 5.8 mph - N/A   Clear
7:55 PM 69.4 °F 62.4 °F 78% 30.01 in 10.0 mi SW 4.6 mph - N/A   Clear
8:15 PM 68.0 °F 62.1 °F 81% 30.00 in 10.0 mi SW 5.8 mph - N/A   Clear
8:35 PM 67.3 °F 62.1 °F 83% 30.01 in 10.0 mi SW 6.9 mph - N/A   Clear
8:55 PM 66.6 °F 61.9 °F 85% 30.01 in 10.0 mi SSW 5.8 mph - N/A   Clear
9:15 PM 65.3 °F 61.2 °F 86% 30.01 in 10.0 mi SW 5.8 mph - N/A   Clear
9:35 PM 65.3 °F 61.3 °F 87% 30.01 in 10.0 mi SW 5.8 mph - N/A   Clear
9:55 PM 64.2 °F 60.8 °F 89% 30.01 in 10.0 mi SW 6.9 mph - N/A   Clear
10:15 PM 64.8 °F 61.2 °F 88% 30.01 in 10.0 mi SW 5.8 mph - N/A   Clear
10:35 PM 65.3 °F 61.5 °F 88% 30.01 in 10.0 mi SW 6.9 mph - N/A   Clear
10:55 PM 65.8 °F 61.9 °F 87% 30.02 in 10.0 mi WSW 6.9 mph - N/A   Clear
11:15 PM 65.7 °F 61.9 °F 88% 30.02 in 10.0 mi SW 6.9 mph - N/A   Clear
11:35 PM 65.3 °F 61.7 °F 88% 30.02 in 10.0 mi SW 6.9 mph - N/A   Clear
11:55 PM 64.4 °F 61.7 °F 91% 30.02 in 10.0 mi WSW 6.9 mph - N/A   Clear